Location: Huesca
(42.1318°N, 0.4078°W)
Time: 19:23:31
(UTC+02:00)

YUBILEINY - Pass Details

Date: 19 April 2026
Orbit: 1477 x 1509 km, 82.5° (Epoch: 17 May)

Event Time Altitude Azimuth Distance (km) Brightness Sun altitude
Rises 01:15:55 0° 353° (N) 4,609 ? -35.8°
Reaches altitude 10° 01:18:51 10° 357° (N) 3,627 ? -35.9°
Enters shadow 01:27:24 65° 74° (ENE) 1,614 ? -36.2°
